User: anonymous   Login
Location: Unspecified
(0.0000°N, 0.0000°E)
Time: 12:19:32
(UTC+00:00)
Language:

Cosmos 1766 - Orbit

View from above orbital plane
View from above orbital plane
View from above satellite
View from above satellite

Ground track
Ground track

The orbit data is extracted from the following two-line orbital elements,

1 16881U 86055A   18021.94873176  .00001338  00000-0  79373-4 0  9993
2 16881  82.5071 169.6459 0018660  68.6962 291.6258 15.10389457714454
Epoch (UTC): 21 January 2018 22:46:10
Eccentricity: 0.0018660
inclination: 82.5071°
perigee height: 522 km
apogee height: 548 km
right ascension of ascending node: 169.6459°
argument of perigee: 68.6962°
revolutions per day: 15.10389457
mean anomaly at epoch: 291.6258°
orbit number at epoch: 71445

The dashed part of the orbit path shows where the satellite is in the earth's shadow,  

DLR